Flag for Colombia Weather past 2 weeks in Cartagena, Colombia

Now
81 °F

Passing clouds.


Feels Like: 87 °F
Forecast: 80 / 88 °F
Wind: 5 mph from Northwest

Location: Cartagena / Rafael Nunez

Current Time: Sep 16, 2014 at 11:05:50 PM

Latest Report: Sep 16, 2014 at 10:00 PM


Visibility: N/A

Pressure: 29.84 "Hg

Humidity: 89%

Dew point: 77 °F

Location of CartagenaLocation

Historic Weather in Cartagena — Graph

°F

Cartagena temperature yesterday

Maximum temperature yesterday: 88 °F (at 11:00 AM)
Minimum temperature yesterday: 81 °F (at 3:00 AM)
Average temperature yesterday: 84 °F

Past Weeks' High & Low Weather Summary

 TemperatureHumidityPressure
High93 °F (Sep 5, 11:00 AM)100% (Sep 16, 3:00 PM)29.92 "Hg (Sep 16, 3:00 PM)
Low75 °F (Sep 2, 7:00 PM)59% (Sep 2, 11:00 AM)29.70 "Hg (Sep 10, 4:00 PM)
Average84 °F81%29.79 "Hg
* Reported Sep 1 10:00 PM — Sep 16 10:00 PM, Cartagena, Weather by CustomWeather, © 2014

Note: Actual official high and low records may vary slightly from our data, if they occured in-between our weather recording intervals... More about our weather records

Advertising

Cartagena weather history for previous 24 hours

 ConditionsComfort  
Time TempWeatherWind HumidityBarometerVisibility
10:00 PM
Sep 16
81 °FPassing clouds.5 mph94%29.85 "HgN/A
9:00 PM81 °FPassing clouds.5 mph94%29.85 "HgN/A
8:00 PM79 °FPassing clouds.5 mph100%29.81 "HgN/A
7:00 PM79 °FPassing clouds.5 mph94%29.81 "HgN/A
6:00 PM79 °FOvercast.No wind94%29.82 "HgN/A
5:00 PM79 °FOvercast.3 mph89%29.81 "HgN/A
4:00 PM79 °FLow clouds.5 mph94%29.80 "HgN/A
3:00 PM77 °FBroken clouds.No wind100%29.80 "HgN/A
2:00 PM75 °FThunderstorms. Broken clouds.8 mph94%29.84 "Hg5 mi
1:00 PM86 °FThunderstorms. Partly sunny.8 mph79%29.88 "Hg1 mi
12:00 PM86 °FThunderstorms. Partly sunny.8 mph79%29.88 "Hg1 mi
11:00 AM90 °FScattered clouds.10 mph71%29.89 "HgN/A
10:00 AM90 °FScattered clouds.No wind71%29.90 "HgN/A
9:00 AM88 °FPassing clouds.5 mph75%29.89 "HgN/A
8:00 AM84 °FScattered clouds.2 mph84%29.89 "HgN/A
7:00 AM82 °FScattered clouds.5 mph89%29.87 "HgN/A
6:00 AM82 °FScattered clouds.6 mph84%29.86 "HgN/A
5:00 AM82 °FPassing clouds.6 mph84%29.86 "HgN/A
4:00 AM82 °FPartly cloudy.6 mph84%29.84 "HgN/A
3:00 AM81 °FPartly cloudy.No wind89%29.85 "HgN/A
2:00 AM81 °FPassing clouds.2 mph89%29.86 "HgN/A
1:00 AM82 °FPassing clouds.2 mph84%29.89 "HgN/A
12:00 AM82 °FPassing clouds.No wind84%29.90 "HgN/A
11:00 PM
Sep 15
82 °FPassing clouds.3 mph79%29.91 "HgN/A
Weather by CustomWeather, © 2014

See weather overviewHow to use our weather pages